Regional Weather Roundup
Issued by NWS

Home | Current Version | Previous Version | Graphics & Text | Print | Product List | Glossary On
Versions: 1 2 3 4 5 6 7 8 9 10 11 12 13 14 15 16 17 18 19 20 21 22 23 24 25 26 27 28 29 30 31 32 33 34 35 36 37 38 39 40 41 42 43 44 45 46 47 48 49 50
000
ASUS43 KLSX 170557
RWRMO

WEATHER SUMMARY FOR MISSOURI
NATIONAL WEATHER SERVICE SPRINGFIELD MO
1200 AM CST FRI NOV 17 2017

NOTE: "FAIR" INDICATES FEW OR NO CLOUDS BELOW 12,000 FEET WITH NO
       SIGNIFICANT WEATHER AND/OR OBSTRUCTIONS TO VISIBILITY.
       CURRENT SKY AND/OR WEATHER CONDITIONS ARE NOT AVAILABLE FOR
       CHILLICOTHE AND FARMINGTON.

MOZ001>031-035>038-043-044-053-054-170700-
...NORTHERN AND WESTERN MISSOURI...

CITY           SKY/WX    TMP DP  RH WIND       PRES   REMARKS
KANSAS CTY INT CLOUDY    47  32  56 SE13      29.93F
6HR MIN TEMP:  44; 6HR MAX TEMP:  47;

LEE`S SUMMIT   CLOUDY    49  33  54 SE14      29.97F
6HR MIN TEMP:  42; 6HR MAX TEMP:  49;

ST JOSEPH      CLOUDY    47  31  53 S8        29.94F
6HR MIN TEMP:  42; 6HR MAX TEMP:  47;

CHILLICOTHE      N/A     42  30  62 SE9       30.02F
6HR MIN TEMP:  38; 6HR MAX TEMP:  42;


$$
MOZ066>068-077>081-088>096-101>105-170700-
...SOUTHWEST MISSOURI...

CITY           SKY/WX    TMP DP  RH WIND       PRES   REMARKS
SPRINGFIELD    CLOUDY    52  40  63 S16G26    30.04S
6HR MIN TEMP:  47; 6HR MAX TEMP:  53;

JOPLIN         CLOUDY    57  49  74 S13       30.00F
6HR MIN TEMP:  54; 6HR MAX TEMP:  57;


$$
MOZ032>034-039>042-045>050-055>058-069>072-170700-
...CENTRAL MISSOURI...

CITY           SKY/WX    TMP DP  RH WIND       PRES   REMARKS
COLUMBIA       NOT AVBL
JEFFERSON CITY CLOUDY    41  31  67 E12       30.09S
6HR MIN TEMP:  37; 6HR MAX TEMP:  46;

ROLLA          CLOUDY    37  31  78 SE8       30.10S
6HR MIN TEMP:  36; 6HR MAX TEMP:  42;

SEDALIA        CLOUDY    46  33  60 SE10      30.03F
6HR MIN TEMP:  40; 6HR MAX TEMP:  46;

WARRENSBURG    CLOUDY    46  32  57 SE8       29.99F

$$
MOZ051-052-059>065-170700-
...EAST CENTRAL MISSOURI...

CITY           SKY/WX    TMP DP  RH WIND       PRES   REMARKS
ST LOUIS INTL  PTCLDY    36  31  82 SE20      30.16F WCI  25
6HR MIN TEMP:  35; 6HR MAX TEMP:  41;


$$
MOZ072>076-082>087-097>100-106>115-170700-
...SOUTH CENTRAL AND SOUTHEAST MISSOURI...

CITY           SKY/WX    TMP DP  RH WIND       PRES   REMARKS
CAPE GIRARDEAU CLEAR     32  29  88 E5        30.18F WCI  27
6HR MIN TEMP:  32; 6HR MAX TEMP:  42;

POPLAR BLUFF   CLEAR     36  33  89 NE3       30.17S
6HR MIN TEMP:  34; 6HR MAX TEMP:  46;

WEST PLAINS    MOCLDY    42  36  79 SE7       30.13S
6HR MIN TEMP:  41; 6HR MAX TEMP:  49;


$$



USA.gov is the U.S. government's official web portal to all federal, state and local government web resources and services.